Location: 22
(39.7117°N, 89.5929°W)
Time: 15:51:18
(UTC-05:00)

Tiros 1 despin weight - Pass Details

Date: 17 August 2024
Orbit: 573 x 617 km, 48.2° (Epoch: 17 September)

Event Time Altitude Azimuth Distance (km) Brightness Sun altitude
Rises 20:45:52 0° 300° (WNW) 2,794 ? -10.6°
Reaches altitude 10° 20:48:09 10° 300° (WNW) 1,887 ? -11.0°
Maximum altitude 20:52:28 84° 214° (SW) 580 ? -11.7°
Enters shadow 20:55:33 18° 125° (SE) 1,408 ? -12.3°
